Regional Weather Roundup
Issued by NWS Charleston, SC

Current Version | Previous Version | Text Only | Print | Product List | Glossary Off
Versions: 1 2 3 4 5 6 7 8 9 10 11 12 13 14 15 16 17 18 19 20 21 22 23 24 25 26 27 28 29 30 31 32 33 34 35 36 37 38 39 40 41 42 43 44 45 46 47 48 49 50

775
ASUS42 KCHS 010228
RWRCHS

REGIONAL WEATHER ROUNDUP
NATIONAL WEATHER SERVICE CHARLESTON SC
1000 PM EDT SAT APR 30 2016

NOTE: "FAIR" INDICATES FEW OR NO CLOUDS BELOW 12,000 FEET WITH NO
SIGNIFICANT WEATHER AND/OR OBSTRUCTIONS TO VISIBILITY.

NOT ALL STATIONS ARE QUALITY CONTROLLED. USE DATA WITH CAUTION...
ESPECIALLY DEWPOINT OBSERVATIONS.

SCZ027-030-031-034>040-042>050-010300-
...SOUTHEAST SOUTH CAROLINA...

CITY           SKY/WX    TMP DP  RH WIND       PRES   REMARKS
N CHARLESTON   MOCLDY    72  68  87 E14       30.05F
WATERFRONT PRK   N/A     72  71  97 E9        30.04R
MOUNT PLEASANT MOCLDY    72  70  94 E5        30.07S
JOHNS ISLAND   FAIR      72  72 100 E12       30.06S
PINOPOLIS        N/A     72  66  83 E7        29.99R
MONCKS CORNER  CLOUDY    68  63  83 E6        30.06F
SUMMERVILLE    CLOUDY    72  70  94 E8        30.06R
BEAUFORT MCAS  PTCLDY    74  69  85 SE7       30.03S
BEAUFORT ARPT  FAIR      73  68  83 E7        30.04R
HILTON HEAD IS CLOUDY    73  72  94 E7        30.05R
WALTERBORO     CLOUDY    73  72  94 SE12      30.06R
ALLENDALE      FAIR      73  68  83 SE6       30.04R

...SOUTHERN MIDLANDS AND PEE DEE...

CITY           SKY/WX    TMP DP  RH WIND       PRES   REMARKS
GEORGETOWN     CLOUDY    68  64  88 E9G18     30.11F
KINGSTREE      CLOUDY    68  63  83 E13G20    30.07S
ORANGEBURG     CLOUDY    74  66  76 SE7       30.04R
BARNWELL       FAIR      75  70  83 SE9       30.05R
AIKEN          FAIR      72  59  64 SE9       30.06R
MANNING        NOT AVBL
COLUMBIA       CLOUDY    76  60  57 SE8       30.02R
SUMTER         CLOUDY    70  64  83 SE8G20    30.04R
FLORENCE       CLOUDY    69  64  84 SE10      30.09R
MYRTLE BEACH   MOCLDY    68  57  68 E17G24    30.14R
N MYRTLE BEACH CLOUDY    67  60  78 E9        30.12R

$$

GAZ063-065-086>088-099>101-113>116-118-119-134>141-150-010300-
...SOUTHEAST GEORGIA...

CITY           SKY/WX    TMP DP  RH WIND       PRES   REMARKS
SAVANNAH ARPT  CLOUDY    75  68  78 SE9       30.03R
HUNTER AAF     CLOUDY    75  73  92 E8        30.01R
FORT STEWART   CLOUDY    74  70  87 SE3       30.01R
STATESBORO     CLOUDY    77  74  88 S5        30.03R
SYLVANIA       PTCLDY    75  71  87 SE5       30.04R
CLAXTON        FAIR      75  72  89 E3        30.03R

...CSRA...CENTRAL AND FAR SOUTHEAST GEORGIA...

CITY           SKY/WX    TMP DP  RH WIND       PRES   REMARKS
THOMSON        MOCLDY    79  65  61 SE6       30.05R
AUGUSTA-BUSH   CLOUDY    75  62  64 SE10      30.00R
AUGUSTA-DANIEL PTCLDY    77  60  55 SE12      30.02R
SWAINSBORO     MOCLDY    77  68  73 SE10      30.03R
VIDALIA        MOCLDY    77  68  73 SE9       30.02R
EASTMAN        CLOUDY    72  72 100 CALM      30.04R
HAZLEHURST     FAIR      77  67  71 SE3       30.01R
ALMA           LGT RAIN  73  68  84 SE8       30.00S
WAYCROSS       MOCLDY    75  67  76 SE3       30.02R
JESUP          FAIR      77  73  88 CALM      30.03R
BAXLEY         FAIR      77  70  78 CALM      30.02R
BRUNSWICK      CLOUDY    79  73  83 CALM      30.04R
SAINT SIMONS   MOCLDY    74  72  93 SE7       30.01R

$$

SCZ027-028-034-036>038-045-046-048>050-GAZ119-141-010300-
...LAKE AND SUPPLEMENTAL COASTAL OBSERVATIONS...

STATION/POSITION TIME  TEMP    WIND        PRES    WAVE   SWELL
                       AIR SEA DIR/SP/G            HT/PER HT/PER/DIR
                 (UTC) (F)     (DEG/KT/KT) (MB)    (FT/S) (FT/S/D)
WINYAH BAY       0100   69      80/ 14     1018.0S
LAKE MURRAY      0100   78     150/  9/ 13 1015.2R
ACE BASIN NERRS  0100   73     100/  2     1017.0
FORT PULASKI     0200   75 74  110/  8/ 10 1017.5R
SAPELO ISLAND    0200   75     130/  1     1017.0R

$$

ANZ835-935-AMZ111-154-330-350-352-354-370-450-454-472-010300-
...C-MAN AND BUOY OBSERVATIONS...

STATION/POSITION TIME  TEMP    WIND        PRES    WAVE   SWELL
                       AIR SEA DIR/SP/G            HT/PER HT/PER/DIR
                 (UTC) (F)     (DEG/KT/KT) (MB)    (FT/S) (FT/S/D)
BUOY 41004       0150   75 73  100/ 14/ 16 1018.5R   3/10   2/10
BUOY 41008       NOT AVBL
FOLLY BEACH CMAN 0200   72      80/ 12/ 13 1018.2F
CAPERS NEARSHORE 0108   72 72   80/ 14/ 19 1018.1R
FRIPP NEARSHORE  0108   74 74  100/ 12/ 14 1016.4R


STATION/POSITION TIME  TEMP    WIND        PRES    WAVE   SWELL
                       AIR SEA DIR/SP/G            HT/PER HT/PER/DIR
                 (UTC) (F)     (DEG/KT/KT) (MB)    (FT/S) (FT/S/D)
5E ST. MARYS GA  0121      74                N/A     2/ 9
FRYING PAN BUOY  0200   70 70   60/ 16/ 19 1019.6R
BUOY 41025       0150   63 74   50/ 14/ 16 1021.9R   5/ 9   5/ 40/ 9
CAPE LOOKOUT NC  0200   62      60/ 15/ 16 1021.2S
BUOY 41002       0150   71      60/ 16/ 19 1019.9R   5/ 8   3/ 30/ 8
BUOY 41010       0120   77 77  110/  6/  8 1017.3R
ST AUGUSTINE FL  0200   74 74  160/ 11/ 12 1017.3R


$$




USA.gov is the U.S. government's official web portal to all federal, state and local government web resources and services.